{"data":{"norad_id":63450,"intl_designator":"2025-069T","name":"STARLINK-33736","alt_names":[],"object_type":"PAYLOAD","status":"ACTIVE","operator":null,"country":"US","launch_date":"2025-04-04","launch_site_code":"AFWTR","launch_vehicle":null,"mission":null,"orbit_class":"UNKNOWN","rcs_meters":null,"size_class":null,"mass_kg":null,"dimensions":null,"purposes":["comms"],"wikipedia_slug":null,"has_3d_model":false,"image_url":null,"decayed_at":null,"tle_current":{"epoch":"2026-09-20T10:38:19.580352Z","epoch_age_seconds":160650,"freshness":"FRESH","line1":"1 63450U 25069T   26263.44328218  .00014571  00000+0  44154-3 0  9999","line2":"2 63450  53.1601 309.9561 0001817  57.5271 302.5908 15.34399189 83283","mean_motion":15.34399189,"eccentricity":0.0001817,"inclination_deg":53.1601,"raan_deg":309.9561,"arg_perigee_deg":57.5271,"mean_anomaly_deg":302.5908,"bstar":0.00044154,"rev_number":8328,"period_min":93.847807684158,"perigee_km":461.46266956145,"apogee_km":463.9486317807,"semimajor_km":6840.8426506711,"source":"CELESTRAK","updated_at":"2026-09-21T09:00:35.004810Z"}}}